sat.trackr.live / text

‹ back to catalog

STARLINK-6177

NORAD 56880 · 2023-083E

PAYLOAD ACTIVE UNKNOWN

§ Identity

Operator
Country
US
Launch date
2023-06-12
Launch site
AFETR
Launch vehicle
Mass (kg)
RCS (m²)

Purposes: comms

External: N2YO · Heavens-Above · Gunter

§ Orbital elements

Epoch: 2026-05-25T00:20:13.532064Z

Period
94.32 min
Inclination
43.0042°
Eccentricity
0.0000918
Mean motion
15.26741625 rev/d
Perigee alt
484.9 km
Apogee alt
486.2 km
Semi-major
6,863.7 km
B*
9.7127e-6
RAAN
14.1274°
Arg perigee
257.0560°
Mean anomaly
103.0189°
Rev number
16,330

§ Raw data

STARLINK-61771 56880U 23083E   26145.01404551  .00000001  00000+0  97127-5 0  99922 56880  43.0042  14.1274 0000918 257.0560 103.0189 15.26741625163308

JSON: /api/v1/satellites/56880 · /tle

For live sub-satellite position, see the globe view (requires WebGL).

§ Visibility from observer

Set your observer location to see the next 7 days of passes ≥ 10°. The values pass through the URL so the page stays shareable.

No JS? Fill the form by hand. The geolocation button needs JavaScript.